[[{"header":{"parameterUnit":"m.s-1","parameterCategory":1,"la1":30.2991,"la2":30.254,"lo1":-89.0895,"lo2":-89.0444,"dy":0.0017,"dx":0.0017,"nx":28,"ny":28,"refTime":"2024-10-08T03:00:00:Z","depth":0,"parameterNumber":2,"parameterNumberName":"U-component_of_WINDS"},"data":[0,0,0,0,0,0,0,0,0,0,0,0,0,0,0,0,0,0,0,0,0,0,0,0,0,0,0,0,0,0,0,0,0,0,0,0,0,0,0,0,0,0,0,0,0,0,0,0,0,0,0,0,0,0,0,0,0,0,-1.1129,-1.1129,0,-1.1178,-1.1178,-1.1179,-1.113,-1.1129,-1.1127,-1.1125,-1.1176,-1.1179,-1.1183,0,0,0,0,0,0,0,0,0,0,0,0,0,-1.0994,-1.0997,-1.1129,-1.1129,-1.113,-1.1178,-1.1178,-1.1179,-1.1131,-1.1128,-1.1126,-1.1124,-1.1175,-1.1179,-1.1183,0,0,0,0,0,0,0,0,0,0,0,0,0,-1.1049,-1.0998,-1.1129,-1.1112,-1.1111,-1.1177,-1.1178,-1.1179,-1.1131,-1.1128,-1.1126,-1.1123,-1.1174,-1.1179,-1.1183,-1.127,0,0,-1.1198,-1.12,0,0,0,0,0,0,0,0,-1.1046,-1.1054,-1.1114,-1.1113,-1.1112,-1.1145,-1.115,-1.121,-1.1132,-1.1124,-1.1125,-1.1121,-1.1168,-1.1173,-1.1189,-1.1272,-1.1274,-1.1198,-1.1201,-1.1203,-1.1204,0,0,0,0,0,0,0,-1.1042,-1.1051,-1.1148,-1.1115,-1.1114,-1.1102,-1.1106,-1.1161,-1.1161,-1.1124,-1.1121,-1.1127,-1.1167,-1.1184,-1.119,-1.1275,-1.1198,-1.1202,-1.1205,-1.1207,-1.1432,-1.1435,0,0,0,0,0,0,-1.104,-1.1049,-1.1147,-1.115,-1.1071,-1.1106,-1.1112,-1.1137,-1.1161,-1.1161,-1.1129,-1.1125,-1.1178,-1.1184,-1.1191,-1.1295,-1.1203,-1.1208,-1.121,-1.1429,-1.1433,-1.1436,0,0,0,0,0,0,-1.1037,-1.1049,-1.1145,-1.1098,-1.1109,-1.1112,-1.1141,-1.114,-1.1157,-1.1165,-1.1165,-1.1147,-1.1176,-1.1185,-1.1251,-1.1296,-1.121,-1.1214,-1.1425,-1.143,-1.1434,-1.1502,0,0,0,0,0,0,-1.1034,-1.1049,-1.1082,-1.1099,-1.1112,-1.1203,-1.1144,-1.1143,-1.1165,-1.1159,-1.1181,-1.1182,-1.1174,-1.1244,-1.1255,-1.1301,-1.1218,-1.1421,-1.1427,-1.1433,-1.1496,-1.1509,-1.152,0,0,0,0,0,-1.1029,-1.1099,-1.1084,-1.1096,-1.1153,-1.1206,-1.1213,-1.1203,-1.1169,-1.1202,-1.1207,-1.1181,-1.1288,-1.1251,-1.1263,-1.1311,-1.1418,-1.1425,-1.1432,-1.1491,-1.1506,-1.1519,0,0,0,0,0,0,-1.1088,-1.1101,-1.1084,-1.1162,-1.1183,-1.1198,-1.124,-1.1219,-1.1251,-1.1244,-1.123,-1.1235,-1.1305,-1.1314,-1.1272,-1.1396,-1.1348,-1.1358,-1.1388,-1.1403,-1.1414,-1.1412,-1.1222,0,0,0,0,0,-1.1109,-1.1151,-1.116,-1.1228,-1.1239,-1.1238,-1.126,-1.125,-1.1271,-1.128,-1.129,-1.1312,-1.1351,-1.1377,-1.1413,-1.1496,-1.1501,-1.1535,-1.1547,-1.1556,-1.1566,-1.1611,-1.1627,-1.1459,-1.1459,-1.1459,0,0,-1.1155,-1.1168,-1.1195,-1.124,-1.1255,-1.1299,-1.1246,-1.1294,-1.1326,-1.1288,-1.1351,-1.1359,-1.1382,-1.1457,-1.1491,-1.1467,-1.1613,-1.1565,-1.1573,-1.1577,-1.162,-1.1636,-1.165,-1.1464,-1.1463,-1.1462,0,0,-1.1262,-1.1275,-1.1333,-1.1349,-1.1372,-1.137,-1.1384,-1.1401,-1.1405,-1.1468,-1.144,-1.1477,-1.1544,-1.1562,-1.1581,-1.1692,-1.167,-1.1703,-1.1766,-1.181,-1.1824,-1.1835,-1.1876,-1.1891,-1.1712,-1.1713,-1.1713,0,-1.1316,-1.138,-1.1365,-1.1416,-1.1437,-1.1402,-1.1461,-1.1477,-1.1512,-1.1527,-1.1499,-1.1582,-1.1596,-1.1675,-1.1702,-1.1717,-1.1733,-1.1702,-1.1823,-1.1834,-1.1845,-1.1884,-1.1899,-1.1717,-1.1716,-1.1716,-1.1715,0,-1.1447,-1.1492,-1.1536,-1.1569,-1.1594,-1.1649,-1.1642,-1.167,-1.1656,-1.1658,-1.1722,-1.1736,-1.1775,-1.1792,-1.178,-1.1869,-1.1854,-1.1825,-1.1777,-1.1865,-1.1902,-1.1917,-1.1723,-1.1721,-1.172,-1.1719,0,0,-1.1594,-1.1617,-1.1634,-1.1649,-1.1671,-1.1705,-1.1758,-1.1795,-1.1819,-1.1843,-1.1887,-1.1943,-1.1916,-1.1937,-1.1926,-1.1964,-1.2052,-1.193,-1.193,-1.1954,-1.2153,-1.2177,-1.2194,-1.2037,-1.2039,-1.2041,-1.2152,0,-1.1702,-1.1794,-1.1781,-1.1869,-1.1911,-1.1878,-1.1923,-1.1942,-1.1944,-1.1979,-1.198,-1.2021,-1.1982,-1.1994,-1.203,-1.2034,-1.2093,-1.2026,-1.2079,-1.2081,-1.2077,-1.2213,-1.2239,-1.2342,-1.2166,-1.2168,-1.217,0,-1.1842,-1.1871,-1.1963,-1.1978,-1.1995,-1.2036,-1.2069,-1.2103,-1.2123,-1.2121,-1.2143,-1.2125,-1.2178,-1.2126,-1.2199,-1.2153,-1.2174,-1.2179,-1.2183,-1.2189,-1.2133,-1.2226,-1.2375,-1.2391,-1.2192,-1.219,-1.2189,0,-1.1943,-1.2004,-1.2067,-1.208,-1.2099,-1.2129,-1.2138,-1.2156,-1.2178,-1.2206,-1.2221,-1.2255,-1.2274,-1.2301,-1.2292,-1.2255,-1.2367,-1.2314,-1.2368,-1.2368,-1.2395,-1.2394,-1.2552,-1.2405,-1.2405,-1.2404,-1.2404,0,-1.2066,-1.2125,-1.2112,-1.2152,-1.2215,-1.2199,-1.2263,-1.2268,-1.2283,-1.2323,-1.2295,-1.2333,-1.2318,-1.2355,-1.2348,-1.241,-1.2418,-1.2419,-1.2417,-1.2423,-1.2423,-1.2438,-1.2432,-1.2408,-1.2407,-1.2407,-1.2406,0,-1.2191,-1.2185,-1.2252,-1.2264,-1.2268,-1.2315,-1.2325,-1.2362,-1.236,-1.241,-1.2421,-1.2419,-1.2461,-1.2454,-1.25,-1.2496,-1.2573,-1.2561,-1.2567,-1.2565,-1.262,-1.2615,-1.2795,-1.2818,-1.2653,-1.2655,-1.2656,0,-1.2272,-1.2316,-1.2332,-1.2356,-1.2368,-1.2407,-1.243,-1.2415,-1.244,-1.2465,-1.2499,-1.2538,-1.2569,-1.2637,-1.264,-1.2675,-1.2665,-1.2725,-1.267,-1.2675,-1.2668,-1.2667,-1.2672,-1.2737,-1.2739,-1.2741,-1.2742,0,-1.2416,-1.2411,-1.2445,-1.2478,-1.2505,-1.2531,-1.2553,-1.2574,-1.2561,-1.2591,-1.2633,-1.2657,-1.2703,-1.2743,-1.2775,-1.2784,-1.2762,-1.2758,-1.2773,-1.2781,-1.2783,-1.2785,-1.2599,-1.2755,-1.2754,-1.2753,-1.2752,-1.2752,-1.2523,-1.256,-1.2578,-1.2616,-1.2631,-1.2653,-1.2688,-1.269,-1.2725,-1.2762,-1.275,-1.2798,-1.2816,-1.2857,-1.287,-1.2907,-1.2885,-1.2906,-1.2911,-1.2918,-1.2925,-1.2775,-1.2913,-1.2912,-1.2912,-1.2912,-1.2911,0,-1.2668,-1.2677,-1.2712,-1.2744,-1.2774,-1.2748,-1.2771,-1.2799,-1.2841,-1.2859,-1.289,-1.2938,-1.2976,-1.298,-1.3016,-1.3045,-1.3036,-1.3055,-1.3054,-1.3057,-1.2942,-1.2927,-1.3062,-1.3062,-1.3062,-1.3062,-1.3062,-1.3062,-1.2747,-1.2809,-1.2806,-1.2875,-1.2883,-1.293,-1.2946,-1.2965,-1.298,-1.3035,-1.3066,-1.3068,-1.3081,-1.3117,-1.315,-1.315,-1.3166,-1.319,-1.3187,-1.308,-1.3065,-1.3051,-1.3036,-1.3193,-1.3193,-1.3299,-1.33,-1.33]},{"header":{"parameterUnit":"m.s-1","parameterCategory":1,"la1":30.2991,"la2":30.254,"lo1":-89.0895,"lo2":-89.0444,"dy":0.0017,"dx":0.0017,"nx":28,"ny":28,"refTime":"2024-10-08T03:00:00:Z","depth":0,"parameterNumber":3,"parameterNumberName":"V-component_of_WINDS"},"data":[0,0,0,0,0,0,0,0,0,0,0,0,0,0,0,0,0,0,0,0,0,0,0,0,0,0,0,0,0,0,0,0,0,0,0,0,0,0,0,0,0,0,0,0,0,0,0,0,0,0,0,0,0,0,0,0,0,0,-5.7737,-5.7737,0,-5.7796,-5.7797,-5.7798,-5.7705,-5.7702,-5.7698,-5.7695,-5.7751,-5.7755,-5.776,0,0,0,0,0,0,0,0,0,0,0,0,0,-5.7537,-5.7541,-5.7737,-5.7737,-5.7738,-5.7796,-5.7797,-5.7798,-5.7705,-5.7702,-5.7698,-5.7694,-5.775,-5.7755,-5.776,0,0,0,0,0,0,0,0,0,0,0,0,0,-5.7613,-5.7542,-5.7736,-5.7699,-5.7696,-5.7796,-5.7797,-5.7798,-5.7706,-5.7701,-5.7697,-5.7692,-5.7748,-5.7754,-5.7761,-5.7898,0,0,-5.7781,-5.7784,0,0,0,0,0,0,0,0,-5.7608,-5.762,-5.7704,-5.7702,-5.7699,-5.7738,-5.7747,-5.7831,-5.7707,-5.7702,-5.7695,-5.769,-5.775,-5.7757,-5.7778,-5.7901,-5.7903,-5.7782,-5.7786,-5.7789,-5.7791,0,0,0,0,0,0,0,-5.7603,-5.7617,-5.776,-5.7705,-5.7702,-5.7677,-5.7683,-5.7762,-5.7752,-5.7702,-5.7696,-5.7704,-5.7748,-5.7772,-5.7779,-5.7904,-5.7782,-5.7788,-5.7792,-5.7795,-5.8141,-5.8146,0,0,0,0,0,0,-5.7603,-5.7613,-5.7758,-5.7762,-5.7641,-5.7685,-5.7691,-5.773,-5.7751,-5.775,-5.7709,-5.77,-5.7763,-5.7771,-5.778,-5.7942,-5.7789,-5.7795,-5.7799,-5.8136,-5.8142,-5.8148,0,0,0,0,0,0,-5.7599,-5.7617,-5.7756,-5.7686,-5.7701,-5.7694,-5.7738,-5.7734,-5.7758,-5.7756,-5.7753,-5.7735,-5.7759,-5.7771,-5.787,-5.7942,-5.7798,-5.7804,-5.813,-5.8138,-5.8145,-5.8266,0,0,0,0,0,0,-5.7594,-5.7616,-5.767,-5.7688,-5.7706,-5.7846,-5.7743,-5.7739,-5.777,-5.776,-5.778,-5.7779,-5.7756,-5.786,-5.7876,-5.7949,-5.781,-5.8123,-5.8133,-5.8142,-5.8256,-5.8277,-5.8295,0,0,0,0,0,-5.7587,-5.7701,-5.7673,-5.7691,-5.7773,-5.7851,-5.7861,-5.7834,-5.7777,-5.7829,-5.7828,-5.7778,-5.7932,-5.7871,-5.7889,-5.7964,-5.8118,-5.813,-5.8142,-5.8247,-5.8273,-5.8295,0,0,0,0,0,0,-5.7689,-5.7702,-5.7672,-5.7795,-5.7823,-5.7835,-5.7901,-5.7863,-5.7906,-5.7894,-5.7858,-5.7863,-5.7969,-5.7976,-5.7908,-5.8097,-5.8015,-5.8031,-5.8089,-5.8114,-5.8134,-5.8129,-5.7815,0,0,0,0,0,-5.7727,-5.7791,-5.7798,-5.7905,-5.7921,-5.7909,-5.7942,-5.7919,-5.7946,-5.7956,-5.7962,-5.7988,-5.8042,-5.8078,-5.8128,-5.8256,-5.8258,-5.8316,-5.8336,-5.8353,-5.8367,-5.8434,-5.8459,-5.8186,-5.8186,-5.8186,0,0,-5.7804,-5.7819,-5.7861,-5.7927,-5.7945,-5.8011,-5.7919,-5.7992,-5.804,-5.7967,-5.8061,-5.8066,-5.8092,-5.8207,-5.8257,-5.8216,-5.8443,-5.8368,-5.8381,-5.8386,-5.8448,-5.8474,-5.8497,-5.8194,-5.8192,-5.8191,0,0,-5.7977,-5.7996,-5.8087,-5.8108,-5.8139,-5.813,-5.8152,-5.817,-5.8171,-5.8265,-5.8212,-5.8266,-5.8361,-5.8382,-5.8404,-5.8586,-5.8541,-5.8603,-5.8707,-5.8773,-5.8794,-5.8813,-5.8877,-5.8901,-5.8617,-5.8617,-5.8617,0,-5.8068,-5.8167,-5.8138,-5.8216,-5.8246,-5.8184,-5.8275,-5.8296,-5.8341,-5.8362,-5.8315,-5.8432,-5.8445,-5.8563,-5.8607,-5.8628,-5.8651,-5.86,-5.8794,-5.8813,-5.883,-5.889,-5.8914,-5.8624,-5.8623,-5.8623,-5.8622,0,-5.8277,-5.8346,-5.8416,-5.8463,-5.85,-5.8584,-5.8566,-5.8607,-5.8581,-5.8576,-5.8672,-5.8686,-5.8737,-5.8764,-5.8738,-5.8878,-5.8851,-5.88,-5.8717,-5.8864,-5.892,-5.8943,-5.8635,-5.8632,-5.863,-5.8628,0,0,-5.8517,-5.8547,-5.8573,-5.8593,-5.8622,-5.8673,-5.8754,-5.8805,-5.8841,-5.8873,-5.8938,-5.9019,-5.8972,-5.8998,-5.8975,-5.9033,-5.9175,-5.8974,-5.8974,-5.901,-5.9328,-5.9366,-5.9393,-5.9145,-5.915,-5.9153,-5.9325,0,-5.8689,-5.883,-5.8807,-5.8943,-5.9005,-5.8947,-5.9017,-5.9041,-5.9039,-5.909,-5.9086,-5.9144,-5.9078,-5.9093,-5.9148,-5.9146,-5.9238,-5.9133,-5.9204,-5.9207,-5.9199,-5.9423,-5.9463,-5.9625,-5.9347,-5.9351,-5.9353,0,-5.891,-5.8952,-5.9095,-5.9114,-5.9139,-5.9202,-5.9247,-5.9297,-5.9323,-5.9317,-5.9347,-5.9312,-5.939,-5.9306,-5.9412,-5.9341,-5.9368,-5.9372,-5.9377,-5.9382,-5.9289,-5.9433,-5.9676,-5.97,-5.9388,-5.9385,-5.9383,0,-5.9069,-5.9162,-5.9259,-5.9278,-5.9303,-5.9348,-5.936,-5.9381,-5.9413,-5.9452,-5.9472,-5.9519,-5.9545,-5.9581,-5.9559,-5.95,-5.9668,-5.9583,-5.9664,-5.9665,-5.9702,-5.97,-5.9952,-5.9721,-5.972,-5.972,-5.9719,0,-5.9264,-5.9354,-5.9332,-5.9391,-5.9489,-5.946,-5.9557,-5.9561,-5.9581,-5.9639,-5.9591,-5.9646,-5.9614,-5.9666,-5.9649,-5.9739,-5.9751,-5.9747,-5.9741,-5.9751,-5.9751,-5.9768,-5.9756,-5.9726,-5.9725,-5.9724,-5.9723,0,-5.9459,-5.9448,-5.955,-5.9566,-5.9571,-5.9643,-5.9654,-5.9709,-5.9703,-5.9777,-5.9793,-5.9783,-5.9842,-5.9824,-5.9886,-5.9875,-5.9989,-5.9969,-5.9981,-5.9976,-6.0058,-6.005,-6.0329,-6.0364,-6.0111,-6.0114,-6.0116,0,-5.9584,-5.9652,-5.9675,-5.9712,-5.9728,-5.9787,-5.982,-5.9793,-5.9829,-5.9864,-5.9914,-5.9969,-6.0011,-6.0107,-6.0105,-6.0152,-6.0133,-6.0227,-6.0139,-6.0147,-6.0133,-6.0129,-6.0135,-6.0244,-6.0247,-6.025,-6.0252,0,-5.9807,-5.9799,-5.9849,-5.9899,-5.994,-5.9977,-6.0009,-6.0041,-6.0017,-6.0059,-6.012,-6.0153,-6.0218,-6.0272,-6.0316,-6.0325,-6.0284,-6.0279,-6.0301,-6.0311,-6.0315,-6.0313,-6.0028,-6.0273,-6.0271,-6.0269,-6.0268,-6.0267,-5.9971,-6.0028,-6.0053,-6.0111,-6.0133,-6.0164,-6.0216,-6.0217,-6.0268,-6.032,-6.0301,-6.037,-6.0392,-6.0446,-6.0462,-6.0514,-6.0477,-6.0508,-6.0516,-6.0524,-6.0534,-6.0308,-6.0521,-6.0521,-6.052,-6.052,-6.0519,0,-6.019,-6.0204,-6.0258,-6.0305,-6.035,-6.031,-6.0343,-6.0383,-6.0445,-6.047,-6.0514,-6.0582,-6.0635,-6.0637,-6.0685,-6.0727,-6.0709,-6.074,-6.0737,-6.0739,-6.0564,-6.0541,-6.0754,-6.0754,-6.0754,-6.0754,-6.0754,-6.0754,-6.031,-6.0405,-6.0399,-6.0503,-6.0515,-6.0584,-6.0607,-6.0634,-6.0654,-6.0734,-6.0778,-6.0779,-6.0795,-6.0844,-6.089,-6.0889,-6.0908,-6.0947,-6.0939,-6.0775,-6.0752,-6.0729,-6.0707,-6.0951,-6.0952,-6.1109,-6.111,-6.1111]}]]